Regional Weather Roundup
Issued by NWS

Home | Current Version | Previous Version | Graphics & Text | Print | Product List | Glossary Off
Versions: 1 2 3 4 5 6 7 8 9 10 11 12 13 14 15 16 17 18 19 20 21 22 23 24 25 26 27 28 29 30 31 32 33 34 35 36 37 38 39 40 41 42 43 44 45 46 47 48 49 50

000
ASUS43 KDMX 270004
RWRIA

WEATHER ROUNDUP FOR IOWA
NATIONAL WEATHER SERVICE DES MOINES IA
  ISSUED BY NWS QUAD CITIES IA IL
700 PM CDT THU MAR 26 2015

NOTE: "FAIR" INDICATES FEW OR NO CLOUDS BELOW 12,000 FEET WITH NO
SIGNIFICANT WEATHER AND/OR OBSTRUCTIONS TO VISIBILITY.

* - THESE STATIONS ARE NOT NWS STATIONS...THUS NOT UNDER NWS
QUALITY CONTROL.  THEY ALSO DO NOT REPORT WEATHER SUCH
AS PRECIPITATION OR FOG.

IAZ001>003-012>014-020>022-031>034-043>046-270100-
   NORTHWEST IOWA

CITY           SKY/WX    TMP DP  RH WIND       PRES   REMARKS
CARROLL *      CLOUDY    37  27  65 N14       30.12R WCI  29
DENNISON *     CLOUDY    36  34  93 W8        30.12R WCI  29
LE MARS *      CLOUDY    39  25  56 N10       30.15S WCI  32
SIOUX CITY     CLOUDY    38  28  67 NW13      30.16S WCI  30
6HR MIN TEMP:  38; 6HR MAX TEMP:  45;

SPENCER        MOCLDY    34  20  56 N17       30.14R WCI  23
6HR MIN TEMP:  34; 6HR MAX TEMP:  40;

$$

IAZ055>058-069>071-079>083-090>094-270100-
   SOUTHWEST IOWA

CITY           SKY/WX    TMP DP  RH WIND       PRES   REMARKS
ATLANTIC *     CLOUDY    37  30  75 N12       30.14R WCI  30
AUDUBON *      MIX PCPN  37  28  70 NW15G21   30.13R WCI  28
CLARINDA *     CLOUDY    43  28  56 N16       30.13R WCI  35
COUNCIL BLFS * LGT SNOW  34  34 100 N9        30.15R WCI  26
CRESTON *      CLOUDY    41  25  52 N14       30.09R WCI  33
HARLAN *       CLOUDY    37  34  87 N14       30.17R WCI  29
LAMONI         CLOUDY    44  25  47 N12       30.07R WCI  38
6HR MIN TEMP:  44; 6HR MAX TEMP:  51;

$$

IAZ047>049-059>061-072>074-084-270100-
   CENTRAL IOWA

CITY           SKY/WX    TMP DP  RH WIND       PRES   REMARKS
AMES           CLOUDY    38  23  55 N14       30.11R WCI  30
6HR MIN TEMP:  38; 6HR MAX TEMP:  45;

ANKENY *       CLOUDY    39  25  56 N13G22    30.10R WCI  32
BOONE *        CLOUDY    37  25  60 N15       30.09R WCI  28
CHARITON *     CLOUDY    41  25  52 N10       30.08S WCI  35
DES MOINES     CLOUDY    42  23  46 N13       30.10R WCI  35
6HR MIN TEMP:  42; 6HR MAX TEMP:  48;

GRINNELL *     CLOUDY    38  24  55 N15       30.08R WCI  30
6HR MIN TEMP:  38; 6HR MAX TEMP:  45;

MARSHALLTOWN   CLOUDY    37  24  59 N15       30.08S WCI  28
6HR MIN TEMP:  37; 6HR MAX TEMP:  44;

PERRY *        CLOUDY    39  28  63 N13       30.11R WCI  32
6HR MIN TEMP:  39; 6HR MAX TEMP:  46;

$$

IAZ004>006-015-016-023>025-035-036-270100-
   NORTH CENTRAL IOWA

CITY           SKY/WX    TMP DP  RH WIND       PRES   REMARKS
ALGONA *       CLOUDY    34  23  64 N13       30.14R WCI  25
CLARION *      CLOUDY    34  25  69 N17G25    30.12R WCI  23
ESTHERVILLE    CLOUDY    31  21  66 N16       30.14R WCI  20
6HR MIN TEMP:  31; 6HR MAX TEMP:  38;

FORT DODGE *   CLOUDY    36  21  55 N9G17     30.13R WCI  29
6HR MIN TEMP:  36; 6HR MAX TEMP:  39;

MASON CITY     CLOUDY    32  22  66 N16       30.12R WCI  21
6HR MIN TEMP:  32; 6HR MAX TEMP:  40;

FOREST CITY *  CLOUDY    32  23  69 N15       30.11R WCI  22
WEBSTER CITY * CLOUDY    36  25  64 N15       30.10R WCI  26
IOWA FALLS *   CLOUDY    35  24  64 NW16G22   30.11R WCI  25
6HR MIN TEMP:  35; 6HR MAX TEMP:  42;

$$

IAZ007>011-017>019-026>030-037>042-050>054-066-270100-
   NORTHEAST IOWA

CITY           SKY/WX    TMP DP  RH WIND       PRES   REMARKS
CEDAR RAPIDS   PTCLDY    36  23  59 N14       30.06R WCI  27
6HR MIN TEMP:  36; 6HR MAX TEMP:  47;

CHARLES CITY * CLOUDY    32  25  74 N16       30.10S WCI  21
CLINTON *      CLEAR     36  21  55 N15       30.08R WCI  26
6HR MIN TEMP:  36; 6HR MAX TEMP:  45;

DECORAH *      CLOUDY    32  21  64 NW8       30.07R WCI  25
DUBUQUE        MOCLDY    33  19  56 N16       30.05R WCI  23
6HR MIN TEMP:  33; 6HR MAX TEMP:  41;

MONTICELLO *   PTCLDY    34  23  64 N16       30.07R WCI  23
WATERLOO       PTCLDY    33  22  63 N17       30.09R WCI  22
6HR MIN TEMP:  33; 6HR MAX TEMP:  42;

$$

IAZ064-065-067-068-078-270100-
   EAST CENTRAL IOWA

CITY           SKY/WX    TMP DP  RH WIND       PRES   REMARKS
DAVENPORT      CLEAR     37  22  54 NW15      30.06R WCI  28
6HR MIN TEMP:  37; 6HR MAX TEMP:  45;

IOWA CITY      PTCLDY    40  22  48 N13       30.08R WCI  32
6HR MIN TEMP:  40; 6HR MAX TEMP:  47;

MT. PLEASANT * MOCLDY    42  22  45 N13       30.06R WCI  35
6HR MIN TEMP:  42; 6HR MAX TEMP:  47;

MUSCATINE *    PTCLDY    41  23  48 N13G20    30.07R WCI  34
QUAD CITIES    CLEAR     38  23  55 NW17      30.05R WCI  28
6HR MIN TEMP:  38; 6HR MAX TEMP:  47;

$$

IAZ062-063-075>077-085>089-095>099-270100-
   SOUTHEAST IOWA

CITY           SKY/WX    TMP DP  RH WIND       PRES   REMARKS
BURLINGTON     PTCLDY    44  22  41 N14G21    30.04R WCI  37
6HR MIN TEMP:  44; 6HR MAX TEMP:  50;

FAIRFIELD *    MOCLDY    41  23  48 NW12      30.06R WCI  34
KEOKUK *       PTCLDY    45  25  45 NW7G16    30.05R
OTTUMWA        CLOUDY    41  24  51 N15       30.07R WCI  33
6HR MIN TEMP:  41; 6HR MAX TEMP:  49;

WASHINGTON *   MOCLDY    41  23  48 N15       30.06R WCI  33
$$

ABBREVIATIONS USED IN REMARKS
   TC - TEMPERATURES IN CELSIUS
  WCI - WIND CHILL INDEX
   HX - HEAT INDEX
  VSB - VISIBILITY
$$


USA.gov is the U.S. government's official web portal to all federal, state and local government web resources and services.